"Sample Date","Sample Time","Sample Value","Units","Flow Rate","Sample Interval","Number Channels","Micron Size 0","Counts/Channel 0","Micron Size 1","Counts/Channel 1","Micron Size 2","Counts/Channel 2","Micron Size 3","Counts/Channel 3","Micron Size 4","Counts/Channel 4","Micron Size 5","Counts/Channel 5","Micron Size 6","Counts/Channel 6","Micron Size 7","Counts/Channel 7","Micron Size 8","Counts/Channel 8","Micron Size 9","Counts/Channel 9","Micron Size 10","Counts/Channel 10","Micron Size 11","Counts/Channel 11","Micron Size 12","Counts/Channel 12","Micron Size 13","Counts/Channel 13","Micron Size 14","Counts/Channel 14","Micron Size 15","Counts/Channel 15","Micron Size 16","Counts/Channel 16","Micron Size 17","Counts/Channel 17","Micron Size 18","Counts/Channel 18","Micron Size 19","Counts/Channel 19","Micron Size 20","Counts/Channel 20","Micron Size 21","Counts/Channel 21","Micron Size 22","Counts/Channel 22","Micron Size 23","Counts/Channel 23","Micron Size 24","Counts/Channel 24","Micron Size 25","Counts/Channel 25","Micron Size 26","Counts/Channel 26","Micron Size 27","Counts/Channel 27","Micron Size 28","Counts/Channel 28","Micron Size 29","Counts/Channel 29","Micron Size 30","Counts/Channel 30","Micron Size 31","Counts/Channel 31"
"04/05/08","16:00:00",4774.000,"cc",28332.266,6.00,6,0.100,4370.000,0.200,383.000,0.300,20.000,0.500,0,1.000,1.000,5.000,0
"04/05/08","16:00:06",4425.000,"cc",28334.420,6.00,6,0.100,4043.000,0.200,349.000,0.300,30.000,0.500,3.000,1.000,0,5.000,0
"04/05/08","16:00:12",4450.000,"cc",28298.432,6.00,6,0.100,4056.000,0.200,361.000,0.300,31.000,0.500,2.000,1.000,0,5.000,0
"04/05/08","16:00:18",4411.000,"cc",28286.658,6.00,6,0.100,4065.000,0.200,321.000,0.300,23.000,0.500,2.000,1.000,0,5.000,0
"04/05/08","16:00:24",3966.000,"cc",28306.465,6.00,6,0.100,3611.000,0.200,326.000,0.300,26.000,0.500,3.000,1.000,0,5.000,0
"04/05/08","16:00:30",4302.000,"cc",28318.324,6.00,6,0.100,3958.000,0.200,317.000,0.300,25.000,0.500,2.000,1.000,0,5.000,0
"04/05/08","16:00:36",4491.000,"cc",28343.320,6.00,6,0.100,4107.000,0.200,356.000,0.300,25.000,0.500,3.000,1.000,0,5.000,0
"04/05/08","16:00:42",4480.000,"cc",28280.494,6.00,6,0.100,4119.000,0.200,339.000,0.300,20.000,0.500,2.000,1.000,0,5.000,0
"04/05/08","16:00:48",4454.000,"cc",28358.522,6.00,6,0.100,4067.000,0.200,342.000,0.300,41.000,0.500,4.000,1.000,0,5.000,0
"04/05/08","16:00:54",4237.000,"cc",28340.815,6.00,6,0.100,3858.000,0.200,337.000,0.300,38.000,0.500,4.000,1.000,0,5.000,0
"04/05/08","16:01:00",4264.000,"cc",28318.248,6.00,6,0.100,3877.000,0.200,359.000,0.300,26.000,0.500,1.000,1.000,1.000,5.000,0
"04/05/08","16:01:06",4056.000,"cc",28289.451,6.00,6,0.100,3730.000,0.200,306.000,0.300,18.000,0.500,2.000,1.000,0,5.000,0
"04/05/08","16:01:12",4141.000,"cc",28327.906,6.00,6,0.100,3783.000,0.200,332.000,0.300,23.000,0.500,3.000,1.000,0,5.000,0
"04/05/08","16:01:18",3711.000,"cc",28299.793,6.00,6,0.100,3383.000,0.200,307.000,0.300,20.000,0.500,1.000,1.000,0,5.000,0
"04/05/08","16:01:24",3705.000,"cc",28301.772,6.00,6,0.100,3414.000,0.200,272.000,0.300,16.000,0.500,3.000,1.000,0,5.000,0
"04/05/08","16:01:30",4318.000,"cc",28316.635,6.00,6,0.100,3953.000,0.200,341.000,0.300,23.000,0.500,1.000,1.000,0,5.000,0
"04/05/08","16:01:36",4398.000,"cc",28373.873,6.00,6,0.100,4043.000,0.200,328.000,0.300,24.000,0.500,3.000,1.000,0,5.000,0
"04/05/08","16:01:42",4566.000,"cc",28335.752,6.00,6,0.100,4154.000,0.200,362.000,0.300,39.000,0.500,8.000,1.000,3.000,5.000,0
"04/05/08","16:01:48",4156.000,"cc",28259.502,6.00,6,0.100,3796.000,0.200,346.000,0.300,13.000,0.500,1.000,1.000,0,5.000,0
"04/05/08","16:01:54",4161.000,"cc",28289.510,6.00,6,0.100,3778.000,0.200,356.000,0.300,25.000,0.500,2.000,1.000,0,5.000,0
"04/05/08","16:02:00",4418.000,"cc",28274.979,6.00,6,0.100,4015.000,0.200,371.000,0.300,26.000,0.500,6.000,1.000,0,5.000,0
"04/05/08","16:02:06",4273.000,"cc",28386.727,6.00,6,0.100,3926.000,0.200,321.000,0.300,22.000,0.500,4.000,1.000,0,5.000,0
"04/05/08","16:02:12",4369.000,"cc",28333.887,6.00,6,0.100,3962.000,0.200,378.000,0.300,28.000,0.500,1.000,1.000,0,5.000,0
"04/05/08","16:02:18",4390.000,"cc",28287.398,6.00,6,0.100,4042.000,0.200,322.000,0.300,25.000,0.500,1.000,1.000,0,5.000,0
"04/05/08","16:02:24",4261.000,"cc",28297.975,6.00,6,0.100,3889.000,0.200,351.000,0.300,19.000,0.500,2.000,1.000,0,5.000,0
"04/05/08","16:02:30",4561.000,"cc",28317.584,6.00,6,0.100,4083.000,0.200,385.000,0.300,60.000,0.500,27.000,1.000,6.000,5.000,0
"04/05/08","16:02:36",4184.000,"cc",28286.883,6.00,6,0.100,3820.000,0.200,322.000,0.300,33.000,0.500,7.000,1.000,2.000,5.000,0
"04/05/08","16:02:42",4069.000,"cc",28352.145,6.00,6,0.100,3663.000,0.200,357.000,0.300,35.000,0.500,12.000,1.000,2.000,5.000,0
"04/05/08","16:02:48",4351.000,"cc",28361.602,6.00,6,0.100,3970.000,0.200,339.000,0.300,32.000,0.500,10.000,1.000,0,5.000,0
"04/05/08","16:02:54",4388.000,"cc",28307.633,6.00,6,0.100,3970.000,0.200,389.000,0.300,21.000,0.500,8.000,1.000,0,5.000,0
"04/05/08","16:03:00",4173.000,"cc",28267.928,6.00,6,0.100,3773.000,0.200,373.000,0.300,21.000,0.500,6.000,1.000,0,5.000,0
"04/05/08","16:03:06",4409.000,"cc",28330.063,6.00,6,0.100,4042.000,0.200,341.000,0.300,25.000,0.500,1.000,1.000,0,5.000,0
"04/05/08","16:03:12",4253.000,"cc",28306.617,6.00,6,0.100,3887.000,0.200,335.000,0.300,29.000,0.500,2.000,1.000,0,5.000,0
"04/05/08","16:03:18",4525.000,"cc",28333.357,6.00,6,0.100,4144.000,0.200,351.000,0.300,24.000,0.500,6.000,1.000,0,5.000,0
"04/05/08","16:03:24",4157.000,"cc",28310.322,6.00,6,0.100,3835.000,0.200,304.000,0.300,16.000,0.500,2.000,1.000,0,5.000,0
"04/05/08","16:03:30",5341.000,"cc",28344.453,6.00,6,0.100,4343.000,0.200,666.000,0.300,218.000,0.500,102.000,1.000,12.000,5.000,0
"04/05/08","16:03:36",4551.000,"cc",28266.254,6.00,6,0.100,4039.000,0.200,435.000,0.300,58.000,0.500,16.000,1.000,3.000,5.000,0
"04/05/08","16:03:42",4227.000,"cc",28329.734,6.00,6,0.100,3875.000,0.200,333.000,0.300,19.000,0.500,0,1.000,0,5.000,0
"04/05/08","16:03:48",4448.000,"cc",28367.488,6.00,6,0.100,4101.000,0.200,328.000,0.300,19.000,0.500,0,1.000,0,5.000,0
"04/05/08","16:03:54",4071.000,"cc",28284.356,6.00,6,0.100,3686.000,0.200,346.000,0.300,35.000,0.500,4.000,1.000,0,5.000,0
"04/05/08","16:04:00",4014.000,"cc",28351.559,6.00,6,0.100,3719.000,0.200,279.000,0.300,13.000,0.500,3.000,1.000,0,5.000,0
"04/05/08","16:04:06",4737.000,"cc",28283.807,6.00,6,0.100,4332.000,0.200,374.000,0.300,29.000,0.500,2.000,1.000,0,5.000,0
"04/05/08","16:04:12",4590.000,"cc",28295.268,6.00,6,0.100,4166.000,0.200,403.000,0.300,21.000,0.500,0,1.000,0,5.000,0
"04/05/08","16:04:18",4565.000,"cc",28336.375,6.00,6,0.100,4169.000,0.200,373.000,0.300,22.000,0.500,1.000,1.000,0,5.000,0
"04/05/08","16:04:24",4508.000,"cc",28344.092,6.00,6,0.100,4154.000,0.200,330.000,0.300,22.000,0.500,2.000,1.000,0,5.000,0
"04/05/08","16:04:30",4720.000,"cc",28310.740,6.00,6,0.100,4330.000,0.200,363.000,0.300,26.000,0.500,1.000,1.000,0,5.000,0
"04/05/08","16:04:36",4540.000,"cc",28305.563,6.00,6,0.100,4174.000,0.200,342.000,0.300,23.000,0.500,1.000,1.000,0,5.000,0
"04/05/08","16:04:42",4342.000,"cc",28288.350,6.00,6,0.100,4045.000,0.200,282.000,0.300,15.000,0.500,0,1.000,0,5.000,0
"04/05/08","16:04:48",4891.000,"cc",28339.725,6.00,6,0.100,4473.000,0.200,402.000,0.300,16.000,0.500,0,1.000,0,5.000,0
"04/05/08","16:04:54",5053.000,"cc",28318.346,6.00,6,0.100,4648.000,0.200,382.000,0.300,21.000,0.500,2.000,1.000,0,5.000,0
"04/05/08","16:05:00",4803.000,"cc",28298.416,6.00,6,0.100,4394.000,0.200,389.000,0.300,19.000,0.500,1.000,1.000,0,5.000,0
"04/05/08","16:05:06",4932.000,"cc",28330.873,6.00,6,0.100,4523.000,0.200,385.000,0.300,24.000,0.500,0,1.000,0,5.000,0
"04/05/08","16:05:12",5164.000,"cc",28307.471,6.00,6,0.100,4727.000,0.200,402.000,0.300,32.000,0.500,3.000,1.000,0,5.000,0
"04/05/08","16:05:18",5257.000,"cc",28285.191,6.00,6,0.100,4767.000,0.200,458.000,0.300,32.000,0.500,0,1.000,0,5.000,0
"04/05/08","16:05:24",5123.000,"cc",28267.242,6.00,6,0.100,4735.000,0.200,365.000,0.300,23.000,0.500,0,1.000,0,5.000,0
"04/05/08","16:05:30",5357.000,"cc",28355.801,6.00,6,0.100,4896.000,0.200,435.000,0.300,22.000,0.500,3.000,1.000,1.000,5.000,0
"04/05/08","16:05:36",5279.000,"cc",28350.486,6.00,6,0.100,4855.000,0.200,401.000,0.300,20.000,0.500,3.000,1.000,0,5.000,0
"04/05/08","16:05:42",5514.000,"cc",28319.131,6.00,6,0.100,5038.000,0.200,452.000,0.300,22.000,0.500,2.000,1.000,0,5.000,0
"04/05/08","16:05:48",5479.000,"cc",28304.088,6.00,6,0.100,5019.000,0.200,422.000,0.300,32.000,0.500,6.000,1.000,0,5.000,0
"04/05/08","16:05:54",5277.000,"cc",28289.070,6.00,6,0.100,4852.000,0.200,394.000,0.300,24.000,0.500,7.000,1.000,0,5.000,0
"04/05/08","16:06:00",5329.000,"cc",28317.525,6.00,6,0.100,4892.000,0.200,418.000,0.300,17.000,0.500,1.000,1.000,1.000,5.000,0
"04/05/08","16:06:06",5288.000,"cc",28299.590,6.00,6,0.100,4846.000,0.200,412.000,0.300,27.000,0.500,3.000,1.000,0,5.000,0
"04/05/08","16:06:12",5244.000,"cc",28367.154,6.00,6,0.100,4824.000,0.200,391.000,0.300,28.000,0.500,1.000,1.000,0,5.000,0
"04/05/08","16:06:18",5183.000,"cc",28293.621,6.00,6,0.100,4764.000,0.200,389.000,0.300,29.000,0.500,1.000,1.000,0,5.000,0
"04/05/08","16:06:24",5118.000,"cc",28292.979,6.00,6,0.100,4720.000,0.200,374.000,0.300,20.000,0.500,4.000,1.000,0,5.000,0
"04/05/08","16:06:30",5017.000,"cc",28318.467,6.00,6,0.100,4584.000,0.200,402.000,0.300,27.000,0.500,1.000,1.000,3.000,5.000,0
"04/05/08","16:06:36",5118.000,"cc",28329.732,6.00,6,0.100,4641.000,0.200,435.000,0.300,39.000,0.500,3.000,1.000,0,5.000,0
"04/05/08","16:06:42",5143.000,"cc",28351.914,6.00,6,0.100,4703.000,0.200,407.000,0.300,28.000,0.500,5.000,1.000,0,5.000,0
"04/05/08","16:06:48",5258.000,"cc",28334.020,6.00,6,0.100,4779.000,0.200,446.000,0.300,27.000,0.500,5.000,1.000,1.000,5.000,0
"04/05/08","16:06:54",5071.000,"cc",28280.576,6.00,6,0.100,4618.000,0.200,422.000,0.300,22.000,0.500,7.000,1.000,2.000,5.000,0
"04/05/08","16:07:00",5221.000,"cc",28257.588,6.00,6,0.100,4753.000,0.200,416.000,0.300,37.000,0.500,13.000,1.000,2.000,5.000,0
"04/05/08","16:07:06",4903.000,"cc",28305.631,6.00,6,0.100,4479.000,0.200,379.000,0.300,36.000,0.500,9.000,1.000,0,5.000,0
"04/05/08","16:07:12",5121.000,"cc",28404.098,6.00,6,0.100,4683.000,0.200,392.000,0.300,37.000,0.500,8.000,1.000,1.000,5.000,0
"04/05/08","16:07:18",5144.000,"cc",28327.068,6.00,6,0.100,4725.000,0.200,380.000,0.300,30.000,0.500,9.000,1.000,0,5.000,0
"04/05/08","16:07:24",5170.000,"cc",28312.783,6.00,6,0.100,4714.000,0.200,416.000,0.300,31.000,0.500,9.000,1.000,0,5.000,0
"04/05/08","16:07:30",5081.000,"cc",28390.897,6.00,6,0.100,4639.000,0.200,403.000,0.300,28.000,0.500,10.000,1.000,1.000,5.000,0
"04/05/08","16:07:36",5166.000,"cc",28236.953,6.00,6,0.100,4722.000,0.200,406.000,0.300,30.000,0.500,7.000,1.000,1.000,5.000,0
"04/05/08","16:07:42",5058.000,"cc",28262.320,6.00,6,0.100,4615.000,0.200,396.000,0.300,36.000,0.500,10.000,1.000,1.000,5.000,0
"04/05/08","16:07:48",5157.000,"cc",28360.789,6.00,6,0.100,4732.000,0.200,377.000,0.300,40.000,0.500,8.000,1.000,0,5.000,0
"04/05/08","16:07:54",5064.000,"cc",28322.197,6.00,6,0.100,4650.000,0.200,367.000,0.300,38.000,0.500,8.000,1.000,1.000,5.000,0
"04/05/08","16:08:00",5015.000,"cc",28287.713,6.00,6,0.100,4608.000,0.200,369.000,0.300,29.000,0.500,7.000,1.000,2.000,5.000,0
"04/05/08","16:08:06",5191.000,"cc",28303.924,6.00,6,0.100,4724.000,0.200,426.000,0.300,30.000,0.500,10.000,1.000,1.000,5.000,0
"04/05/08","16:08:12",5146.000,"cc",28354.678,6.00,6,0.100,4693.000,0.200,403.000,0.300,38.000,0.500,11.000,1.000,1.000,5.000,0
"04/05/08","16:08:18",5110.000,"cc",28320.035,6.00,6,0.100,4674.000,0.200,384.000,0.300,44.000,0.500,7.000,1.000,1.000,5.000,0
"04/05/08","16:08:24",5167.000,"cc",28353.379,6.00,6,0.100,4719.000,0.200,402.000,0.300,27.000,0.500,15.000,1.000,4.000,5.000,0
"04/05/08","16:08:30",5192.000,"cc",28320.697,6.00,6,0.100,4734.000,0.200,403.000,0.300,34.000,0.500,17.000,1.000,4.000,5.000,0
"04/05/08","16:08:36",5059.000,"cc",28307.543,6.00,6,0.100,4622.000,0.200,385.000,0.300,34.000,0.500,17.000,1.000,1.000,5.000,0
"04/05/08","16:08:42",4861.000,"cc",28321.660,6.00,6,0.100,4426.000,0.200,384.000,0.300,35.000,0.500,10.000,1.000,6.000,5.000,0
"04/05/08","16:08:48",4781.000,"cc",28271.621,6.00,6,0.100,4350.000,0.200,369.000,0.300,43.000,0.500,16.000,1.000,3.000,5.000,0
"04/05/08","16:08:54",4707.000,"cc",28290.760,6.00,6,0.100,4257.000,0.200,397.000,0.300,38.000,0.500,12.000,1.000,3.000,5.000,0
"04/05/08","16:09:00",4771.000,"cc",28329.098,6.00,6,0.100,4337.000,0.200,379.000,0.300,43.000,0.500,12.000,1.000,0,5.000,0
"04/05/08","16:09:06",4617.000,"cc",28362.545,6.00,6,0.100,4229.000,0.200,348.000,0.300,30.000,0.500,10.000,1.000,0,5.000,0
"04/05/08","16:09:12",4563.000,"cc",28384.418,6.00,6,0.100,4148.000,0.200,371.000,0.300,33.000,0.500,11.000,1.000,0,5.000,0
"04/05/08","16:09:18",4623.000,"cc",28276.434,6.00,6,0.100,4210.000,0.200,384.000,0.300,25.000,0.500,4.000,1.000,0,5.000,0
"04/05/08","16:09:24",4729.000,"cc",28251.840,6.00,6,0.100,4308.000,0.200,381.000,0.300,32.000,0.500,8.000,1.000,0,5.000,0
"04/05/08","16:09:30",4606.000,"cc",28351.705,6.00,6,0.100,4214.000,0.200,350.000,0.300,34.000,0.500,7.000,1.000,1.000,5.000,0
"04/05/08","16:09:36",4585.000,"cc",28331.990,6.00,6,0.100,4192.000,0.200,370.000,0.300,15.000,0.500,6.000,1.000,2.000,5.000,0
"04/05/08","16:09:42",4508.000,"cc",28290.063,6.00,6,0.100,4128.000,0.200,347.000,0.300,25.000,0.500,8.000,1.000,0,5.000,0
"04/05/08","16:09:48",4610.000,"cc",28299.629,6.00,6,0.100,4219.000,0.200,349.000,0.300,35.000,0.500,6.000,1.000,1.000,5.000,0
"04/05/08","16:09:54",4557.000,"cc",28363.326,6.00,6,0.100,4169.000,0.200,351.000,0.300,32.000,0.500,4.000,1.000,1.000,5.000,0
"04/05/08","16:10:00",4798.000,"cc",28287.022,6.00,6,0.100,4386.000,0.200,373.000,0.300,29.000,0.500,10.000,1.000,0,5.000,0
"04/05/08","16:10:06",4596.000,"cc",28291.014,6.00,6,0.100,4198.000,0.200,372.000,0.300,16.000,0.500,9.000,1.000,1.000,5.000,0
"04/05/08","16:10:12",4649.000,"cc",28296.793,6.00,6,0.100,4236.000,0.200,380.000,0.300,29.000,0.500,4.000,1.000,0,5.000,0
"04/05/08","16:10:18",4777.000,"cc",28341.824,6.00,6,0.100,4339.000,0.200,398.000,0.300,28.000,0.500,9.000,1.000,3.000,5.000,0
"04/05/08","16:10:24",4653.000,"cc",28257.348,6.00,6,0.100,4231.000,0.200,387.000,0.300,29.000,0.500,6.000,1.000,0,5.000,0
"04/05/08","16:10:30",4652.000,"cc",28324.516,6.00,6,0.100,4219.000,0.200,398.000,0.300,26.000,0.500,9.000,1.000,0,5.000,0
"04/05/08","16:10:36",4548.000,"cc",28350.420,6.00,6,0.100,4140.000,0.200,371.000,0.300,32.000,0.500,5.000,1.000,0,5.000,0
"04/05/08","16:10:42",4469.000,"cc",28245.316,6.00,6,0.100,4065.000,0.200,365.000,0.300,32.000,0.500,7.000,1.000,0,5.000,0
"04/05/08","16:10:48",4748.000,"cc",28384.840,6.00,6,0.100,4320.000,0.200,386.000,0.300,30.000,0.500,10.000,1.000,2.000,5.000,0
"04/05/08","16:10:54",4935.000,"cc",28310.772,6.00,6,0.100,4522.000,0.200,384.000,0.300,24.000,0.500,5.000,1.000,0,5.000,0
"04/05/08","16:11:00",4933.000,"cc",28387.967,6.00,6,0.100,4448.000,0.200,439.000,0.300,36.000,0.500,9.000,1.000,1.000,5.000,0
"04/05/08","16:11:06",4915.000,"cc",28383.172,6.00,6,0.100,4399.000,0.200,459.000,0.300,42.000,0.500,15.000,1.000,0,5.000,0
"04/05/08","16:11:12",4943.000,"cc",28276.793,6.00,6,0.100,4473.000,0.200,428.000,0.300,36.000,0.500,5.000,1.000,1.000,5.000,0
"04/05/08","16:11:18",5111.000,"cc",28224.197,6.00,6,0.100,4617.000,0.200,448.000,0.300,39.000,0.500,6.000,1.000,1.000,5.000,0
"04/05/08","16:11:24",5360.000,"cc",28348.795,6.00,6,0.100,4833.000,0.200,471.000,0.300,36.000,0.500,17.000,1.000,3.000,5.000,0
"04/05/08","16:11:30",5424.000,"cc",28301.582,6.00,6,0.100,4913.000,0.200,454.000,0.300,48.000,0.500,7.000,1.000,2.000,5.000,0
"04/05/08","16:11:36",5483.000,"cc",28284.590,6.00,6,0.100,4934.000,0.200,496.000,0.300,43.000,0.500,10.000,1.000,0,5.000,0
"04/05/08","16:11:42",5584.000,"cc",28350.147,6.00,6,0.100,5050.000,0.200,480.000,0.300,42.000,0.500,10.000,1.000,2.000,5.000,0
"04/05/08","16:11:48",5500.000,"cc",28291.775,6.00,6,0.100,4999.000,0.200,449.000,0.300,40.000,0.500,11.000,1.000,1.000,5.000,0
"04/05/08","16:11:54",5552.000,"cc",28278.797,6.00,6,0.100,5052.000,0.200,439.000,0.300,44.000,0.500,16.000,1.000,1.000,5.000,0
"04/05/08","16:12:00",5528.000,"cc",28384.395,6.00,6,0.100,5038.000,0.200,439.000,0.300,34.000,0.500,15.000,1.000,2.000,5.000,0
"04/05/08","16:12:06",5333.000,"cc",28350.555,6.00,6,0.100,4840.000,0.200,434.000,0.300,41.000,0.500,17.000,1.000,1.000,5.000,0
"04/05/08","16:12:12",5397.000,"cc",28339.076,6.00,6,0.100,4928.000,0.200,414.000,0.300,39.000,0.500,14.000,1.000,2.000,5.000,0
"04/05/08","16:12:18",5191.000,"cc",28284.545,6.00,6,0.100,4719.000,0.200,412.000,0.300,37.000,0.500,23.000,1.000,0,5.000,0
"04/05/08","16:12:24",5139.000,"cc",28284.809,6.00,6,0.100,4686.000,0.200,404.000,0.300,36.000,0.500,12.000,1.000,1.000,5.000,0
"04/05/08","16:12:30",5263.000,"cc",28316.131,6.00,6,0.100,4772.000,0.200,442.000,0.300,34.000,0.500,12.000,1.000,3.000,5.000,0
"04/05/08","16:12:36",5125.000,"cc",28405.131,6.00,6,0.100,4650.000,0.200,423.000,0.300,41.000,0.500,11.000,1.000,0,5.000,0
"04/05/08","16:12:42",5135.000,"cc",28297.848,6.00,6,0.100,4657.000,0.200,424.000,0.300,44.000,0.500,10.000,1.000,0,5.000,0
"04/05/08","16:12:48",5131.000,"cc",28267.330,6.00,6,0.100,4668.000,0.200,389.000,0.300,54.000,0.500,18.000,1.000,2.000,5.000,0
"04/05/08","16:12:54",5276.000,"cc",28280.512,6.00,6,0.100,4804.000,0.200,428.000,0.300,36.000,0.500,7.000,1.000,1.000,5.000,0
"04/05/08","16:13:00",5080.000,"cc",28347.623,6.00,6,0.100,4669.000,0.200,372.000,0.300,30.000,0.500,9.000,1.000,0,5.000,0
"04/05/08","16:13:06",5055.000,"cc",28354.010,6.00,6,0.100,4599.000,0.200,401.000,0.300,37.000,0.500,15.000,1.000,3.000,5.000,0
"04/05/08","16:13:12",5022.000,"cc",28298.465,6.00,6,0.100,4546.000,0.200,427.000,0.300,34.000,0.500,15.000,1.000,0,5.000,0
"04/05/08","16:13:18",4859.000,"cc",28314.805,6.00,6,0.100,4420.000,0.200,393.000,0.300,33.000,0.500,13.000,1.000,0,5.000,0
"04/05/08","16:13:24",5045.000,"cc",28286.016,6.00,6,0.100,4581.000,0.200,425.000,0.300,33.000,0.500,6.000,1.000,0,5.000,0
"04/05/08","16:13:30",4784.000,"cc",28284.760,6.00,6,0.100,4326.000,0.200,416.000,0.300,36.000,0.500,6.000,1.000,0,5.000,0
"04/05/08","16:13:36",4790.000,"cc",28344.020,6.00,6,0.100,4334.000,0.200,397.000,0.300,47.000,0.500,12.000,1.000,0,5.000,0
"04/05/08","16:13:42",4855.000,"cc",28322.676,6.00,6,0.100,4345.000,0.200,456.000,0.300,40.000,0.500,11.000,1.000,3.000,5.000,0
"04/05/08","16:13:48",4676.000,"cc",28401.637,6.00,6,0.100,4188.000,0.200,443.000,0.300,39.000,0.500,6.000,1.000,0,5.000,0
"04/05/08","16:13:54",4555.000,"cc",28302.393,6.00,6,0.100,4094.000,0.200,416.000,0.300,31.000,0.500,11.000,1.000,3.000,5.000,0
"04/05/08","16:14:00",4559.000,"cc",28305.545,6.00,6,0.100,4116.000,0.200,410.000,0.300,29.000,0.500,3.000,1.000,1.000,5.000,0
"04/05/08","16:14:06",4671.000,"cc",28286.793,6.00,6,0.100,4204.000,0.200,428.000,0.300,25.000,0.500,13.000,1.000,1.000,5.000,0
"04/05/08","16:14:12",4742.000,"cc",28313.619,6.00,6,0.100,4301.000,0.200,393.000,0.300,39.000,0.500,9.000,1.000,0,5.000,0
"04/05/08","16:14:18",4591.000,"cc",28280.328,6.00,6,0.100,4090.000,0.200,442.000,0.300,44.000,0.500,14.000,1.000,1.000,5.000,0
"04/05/08","16:14:24",4580.000,"cc",28329.092,6.00,6,0.100,4133.000,0.200,403.000,0.300,36.000,0.500,8.000,1.000,0,5.000,0
"04/05/08","16:14:30",4541.000,"cc",28299.979,6.00,6,0.100,4125.000,0.200,378.000,0.300,34.000,0.500,3.000,1.000,1.000,5.000,0
"04/05/08","16:14:36",4199.000,"cc",28304.606,6.00,6,0.100,3795.000,0.200,373.000,0.300,27.000,0.500,3.000,1.000,1.000,5.000,0
"04/05/08","16:14:42",4392.000,"cc",28335.834,6.00,6,0.100,3940.000,0.200,402.000,0.300,43.000,0.500,7.000,1.000,0,5.000,0
"04/05/08","16:14:48",4506.000,"cc",28331.738,6.00,6,0.100,4013.000,0.200,459.000,0.300,27.000,0.500,6.000,1.000,1.000,5.000,0
"04/05/08","16:14:54",4146.000,"cc",28323.168,6.00,6,0.100,3716.000,0.200,402.000,0.300,26.000,0.500,2.000,1.000,0,5.000,0
"04/05/08","16:15:00",4462.000,"cc",28352.109,6.00,6,0.100,3968.000,0.200,447.000,0.300,38.000,0.500,8.000,1.000,1.000,5.000,0
"04/05/08","16:15:06",4424.000,"cc",28322.340,6.00,6,0.100,3939.000,0.200,440.000,0.300,34.000,0.500,10.000,1.000,1.000,5.000,0
"04/05/08","16:15:12",4367.000,"cc",28236.221,6.00,6,0.100,3909.000,0.200,427.000,0.300,20.000,0.500,10.000,1.000,1.000,5.000,0
"04/05/08","16:15:18",4331.000,"cc",28280.074,6.00,6,0.100,3861.000,0.200,431.000,0.300,31.000,0.500,8.000,1.000,0,5.000,0
"04/05/08","16:15:24",4171.000,"cc",28327.207,6.00,6,0.100,3734.000,0.200,404.000,0.300,27.000,0.500,6.000,1.000,0,5.000,0
"04/05/08","16:15:30",4232.000,"cc",28360.916,6.00,6,0.100,3784.000,0.200,414.000,0.300,27.000,0.500,7.000,1.000,0,5.000,0
"04/05/08","16:15:36",4326.000,"cc",28276.830,6.00,6,0.100,3872.000,0.200,418.000,0.300,24.000,0.500,12.000,1.000,0,5.000,0
"04/05/08","16:15:42",4403.000,"cc",28347.840,6.00,6,0.100,3928.000,0.200,422.000,0.300,44.000,0.500,8.000,1.000,1.000,5.000,0
"04/05/08","16:15:48",4329.000,"cc",28338.092,6.00,6,0.100,3858.000,0.200,418.000,0.300,39.000,0.500,13.000,1.000,1.000,5.000,0
"04/05/08","16:15:54",4191.000,"cc",28286.494,6.00,6,0.100,3712.000,0.200,430.000,0.300,35.000,0.500,10.000,1.000,4.000,5.000,0
"04/05/08","16:16:00",4283.000,"cc",28303.416,6.00,6,0.100,3847.000,0.200,400.000,0.300,32.000,0.500,4.000,1.000,0,5.000,0
"04/05/08","16:16:06",4159.000,"cc",28349.051,6.00,6,0.100,3722.000,0.200,407.000,0.300,26.000,0.500,4.000,1.000,0,5.000,0
"04/05/08","16:16:12",4223.000,"cc",28341.074,6.00,6,0.100,3744.000,0.200,438.000,0.300,31.000,0.500,9.000,1.000,1.000,5.000,0
"04/05/08","16:16:18",4270.000,"cc",28297.553,6.00,6,0.100,3805.000,0.200,416.000,0.300,39.000,0.500,10.000,1.000,0,5.000,0
"04/05/08","16:16:24",4348.000,"cc",28315.211,6.00,6,0.100,3878.000,0.200,412.000,0.300,46.000,0.500,10.000,1.000,2.000,5.000,0
"04/05/08","16:16:30",4234.000,"cc",28338.363,6.00,6,0.100,3742.000,0.200,438.000,0.300,37.000,0.500,17.000,1.000,0,5.000,0
"04/05/08","16:16:36",4170.000,"cc",28322.154,6.00,6,0.100,3688.000,0.200,439.000,0.300,35.000,0.500,8.000,1.000,0,5.000,0
"04/05/08","16:16:42",4103.000,"cc",28308.711,6.00,6,0.100,3647.000,0.200,409.000,0.300,39.000,0.500,8.000,1.000,0,5.000,0
"04/05/08","16:16:48",4201.000,"cc",28329.801,6.00,6,0.100,3706.000,0.200,430.000,0.300,46.000,0.500,17.000,1.000,2.000,5.000,0
"04/05/08","16:16:54",4173.000,"cc",28320.154,6.00,6,0.100,3736.000,0.200,389.000,0.300,39.000,0.500,9.000,1.000,0,5.000,0
"04/05/08","16:17:00",4083.000,"cc",28279.760,6.00,6,0.100,3590.000,0.200,429.000,0.300,36.000,0.500,27.000,1.000,1.000,5.000,0
"04/05/08","16:17:06",4089.000,"cc",28335.055,6.00,6,0.100,3607.000,0.200,412.000,0.300,55.000,0.500,14.000,1.000,1.000,5.000,0
"04/05/08","16:17:12",4146.000,"cc",28333.436,6.00,6,0.100,3654.000,0.200,430.000,0.300,49.000,0.500,12.000,1.000,1.000,5.000,0
"04/05/08","16:17:18",4079.000,"cc",28348.852,6.00,6,0.100,3607.000,0.200,409.000,0.300,50.000,0.500,12.000,1.000,1.000,5.000,0
"04/05/08","16:17:24",4046.000,"cc",28318.578,6.00,6,0.100,3608.000,0.200,388.000,0.300,38.000,0.500,12.000,1.000,0,5.000,0
"04/05/08","16:17:30",3993.000,"cc",28297.125,6.00,6,0.100,3541.000,0.200,390.000,0.300,45.000,0.500,16.000,1.000,1.000,5.000,0
"04/05/08","16:17:36",4056.000,"cc",28317.391,6.00,6,0.100,3598.000,0.200,408.000,0.300,42.000,0.500,8.000,1.000,0,5.000,0
"04/05/08","16:17:42",4136.000,"cc",28358.031,6.00,6,0.100,3679.000,0.200,397.000,0.300,43.000,0.500,17.000,1.000,0,5.000,0
"04/05/08","16:17:48",3864.000,"cc",28276.883,6.00,6,0.100,3457.000,0.200,355.000,0.300,44.000,0.500,8.000,1.000,0,5.000,0
"04/05/08","16:17:54",3981.000,"cc",28287.182,6.00,6,0.100,3539.000,0.200,360.000,0.300,60.000,0.500,21.000,1.000,1.000,5.000,0